Retour au catalogue

STARLINK-36880

ActifCommunicationsSSO
NORAD 67976·PAYLOAD·🇺🇸 United States

Lancé Feb 25, 2026 depuis Vandenberg Space Force Base

Loading…

Prochains Passages (prochaines 24 heures)

TLE

FraisSource: CelesTrak SupGP

Époque: Sep 14, 2026, 21:12 UTC

1 67976C 26038R   26257.88381944  .00042310  00000+0  13136-2 0  2573
2 67976  97.2848 266.3265 0001741  88.7745 290.9222 15.33413272    15

Suivez STARLINK-36880 en temps réel avec AllMySat

Download on the App Store